TimeCDT,TemperatureF,Dew PointF,Humidity,Sea Level PressureIn,VisibilityMPH,Wind Direction,Wind SpeedMPH,Gust SpeedMPH,PrecipitationIn,Events,Conditions,WindDirDegrees,DateUTC
12:11 AM,64.4,55.4,73,30.06,10.0,Calm,Calm,-,N/A,,Clear,0,2013-06-14 05:11:00
12:32 AM,62.6,55.4,77,30.07,10.0,Calm,Calm,-,N/A,,Clear,0,2013-06-14 05:32:00
12:52 AM,62.6,55.4,77,30.06,7.0,Calm,Calm,-,N/A,,Clear,0,2013-06-14 05:52:00
1:11 AM,60.8,55.4,82,30.06,10.0,Calm,Calm,-,N/A,,Clear,0,2013-06-14 06:11:00
1:32 AM,60.8,55.4,82,30.07,10.0,Calm,Calm,-,N/A,,Clear,0,2013-06-14 06:32:00
1:52 AM,60.8,55.4,82,30.08,10.0,Calm,Calm,-,N/A,,Clear,0,2013-06-14 06:52:00
2:11 AM,60.8,55.4,82,30.08,10.0,Calm,Calm,-,N/A,,Clear,0,2013-06-14 07:11:00
2:32 AM,59.0,55.4,88,30.08,10.0,Calm,Calm,-,N/A,,Clear,0,2013-06-14 07:32:00
2:52 AM,59.0,55.4,88,30.07,10.0,Calm,Calm,-,N/A,,Clear,0,2013-06-14 07:52:00
3:11 AM,59.0,55.4,88,30.06,10.0,Calm,Calm,-,N/A,,Clear,0,2013-06-14 08:11:00
3:32 AM,59.0,55.4,88,30.07,10.0,Calm,Calm,-,N/A,,Clear,0,2013-06-14 08:32:00
3:52 AM,60.8,57.2,88,30.07,10.0,Calm,Calm,-,N/A,,Clear,0,2013-06-14 08:52:00
4:11 AM,60.8,55.4,82,30.08,10.0,Calm,Calm,-,N/A,,Clear,0,2013-06-14 09:11:00
4:32 AM,60.8,55.4,82,30.09,10.0,Calm,Calm,-,N/A,,Clear,0,2013-06-14 09:32:00
4:52 AM,60.8,57.2,88,30.09,10.0,Calm,Calm,-,N/A,,Clear,0,2013-06-14 09:52:00
5:11 AM,60.8,57.2,88,30.07,10.0,East,4.6,-,N/A,,Clear,100,2013-06-14 10:11:00
5:32 AM,62.6,57.2,82,30.05,10.0,SE,6.9,-,N/A,,Clear,140,2013-06-14 10:32:00
5:51 AM,64.4,55.4,73,30.04,10.0,ESE,8.1,-,N/A,,Clear,120,2013-06-14 10:51:00
6:12 AM,64.4,55.4,73,30.06,10.0,SSE,5.8,-,N/A,,Clear,160,2013-06-14 11:12:00
6:31 AM,64.4,55.4,73,29.98,10.0,SE,18.4,21.9,N/A,,Scattered Clouds,130,2013-06-14 11:31:00
6:51 AM,64.4,55.4,73,29.99,10.0,SE,12.7,16.1,N/A,Rain,Light Rain,140,2013-06-14 11:51:00
7:12 AM,64.4,55.4,73,30.09,10.0,NNE,3.5,-,N/A,Rain-Thunderstorm,Light Thunderstorms and Rain,30,2013-06-14 12:12:00
7:31 AM,66.2,55.4,68,30.08,10.0,East,4.6,-,N/A,,Clear,80,2013-06-14 12:31:00
7:51 AM,66.2,55.4,68,30.06,10.0,ESE,8.1,-,N/A,,Clear,120,2013-06-14 12:51:00
8:12 AM,66.2,55.4,68,30.07,10.0,SE,8.1,-,N/A,,Clear,140,2013-06-14 13:12:00
8:31 AM,66.2,55.4,68,30.07,10.0,SSE,10.4,-,N/A,,Scattered Clouds,150,2013-06-14 13:31:00
8:51 AM,66.2,55.4,68,30.07,10.0,SSE,11.5,16.1,N/A,,Scattered Clouds,150,2013-06-14 13:51:00
9:12 AM,68.0,57.2,68,30.07,10.0,SSE,13.8,19.6,N/A,,Scattered Clouds,150,2013-06-14 14:12:00
9:31 AM,69.8,57.2,64,30.06,7.0,SSE,11.5,18.4,N/A,,Scattered Clouds,150,2013-06-14 14:31:00
9:52 AM,71.6,57.2,60,30.06,10.0,SSE,8.1,19.6,N/A,,Scattered Clouds,150,2013-06-14 14:52:00
10:12 AM,71.6,57.2,60,30.05,10.0,SSE,15.0,18.4,N/A,,Clear,160,2013-06-14 15:12:00
10:31 AM,71.6,59.0,64,30.05,10.0,SSE,16.1,-,N/A,,Clear,150,2013-06-14 15:31:00
10:52 AM,71.6,59.0,64,30.03,10.0,SSE,13.8,21.9,N/A,,Clear,160,2013-06-14 15:52:00
11:12 AM,71.6,59.0,64,30.03,10.0,SSE,15.0,24.2,N/A,,Scattered Clouds,150,2013-06-14 16:12:00
11:31 AM,71.6,60.8,69,30.03,10.0,SSE,17.3,24.2,N/A,,Scattered Clouds,150,2013-06-14 16:31:00
11:52 AM,71.6,60.8,69,30.04,10.0,SSE,13.8,23.0,N/A,,Scattered Clouds,150,2013-06-14 16:52:00
12:12 PM,71.6,60.8,69,30.03,10.0,SE,12.7,21.9,N/A,,Mostly Cloudy,140,2013-06-14 17:12:00
12:31 PM,73.4,59.0,61,30.04,10.0,SSE,16.1,21.9,N/A,,Mostly Cloudy,150,2013-06-14 17:31:00
12:52 PM,73.4,59.0,61,30.02,10.0,SE,13.8,21.9,N/A,,Scattered Clouds,140,2013-06-14 17:52:00
1:11 PM,75.2,59.0,57,30.01,10.0,SSE,16.1,24.2,N/A,,Scattered Clouds,150,2013-06-14 18:11:00
1:32 PM,75.2,57.2,53,30.01,10.0,SSE,16.1,21.9,N/A,,Clear,150,2013-06-14 18:32:00
1:51 PM,75.2,57.2,53,30.00,10.0,SSE,15.0,23.0,N/A,,Clear,150,2013-06-14 18:51:00
2:11 PM,73.4,59.0,61,30.00,10.0,SSE,10.4,23.0,N/A,,Mostly Cloudy,150,2013-06-14 19:11:00
2:32 PM,75.2,57.2,53,29.99,10.0,SSE,17.3,23.0,N/A,,Mostly Cloudy,150,2013-06-14 19:32:00
2:51 PM,75.2,57.2,53,30.01,7.0,SSE,15.0,23.0,N/A,,Mostly Cloudy,150,2013-06-14 19:51:00
3:11 PM,75.2,59.0,57,30.02,10.0,SSE,10.4,18.4,N/A,,Mostly Cloudy,160,2013-06-14 20:11:00
3:32 PM,75.2,59.0,57,29.98,10.0,SSE,16.1,19.6,N/A,,Scattered Clouds,160,2013-06-14 20:32:00
3:51 PM,75.2,59.0,57,29.97,10.0,SSE,17.3,20.7,N/A,,Clear,150,2013-06-14 20:51:00
4:11 PM,75.2,60.8,61,29.95,10.0,SSE,15.0,20.7,N/A,,Clear,160,2013-06-14 21:11:00
4:32 PM,75.2,59.0,57,29.94,10.0,SSE,15.0,23.0,N/A,,Clear,160,2013-06-14 21:32:00
4:51 PM,75.2,59.0,57,29.94,10.0,SSE,15.0,20.7,N/A,,Clear,150,2013-06-14 21:51:00
5:11 PM,75.2,57.2,53,29.94,10.0,SSE,13.8,19.6,N/A,,Scattered Clouds,160,2013-06-14 22:11:00
5:32 PM,73.4,57.2,57,29.95,10.0,South,12.7,19.6,N/A,,Mostly Cloudy,170,2013-06-14 22:32:00
5:51 PM,73.4,57.2,57,29.94,10.0,South,12.7,17.3,N/A,,Mostly Cloudy,170,2013-06-14 22:51:00
6:11 PM,75.2,59.0,57,29.93,10.0,SSE,13.8,21.9,N/A,,Scattered Clouds,150,2013-06-14 23:11:00
6:32 PM,75.2,60.8,61,29.91,10.0,SSE,13.8,23.0,N/A,,Clear,160,2013-06-14 23:32:00
6:52 PM,73.4,59.0,61,29.89,10.0,SSE,18.4,25.3,N/A,,Clear,150,2013-06-14 23:52:00
7:11 PM,73.4,59.0,61,29.90,10.0,SSE,16.1,23.0,N/A,,Clear,160,2013-06-15 00:11:00
7:32 PM,73.4,59.0,61,29.93,10.0,South,12.7,20.7,N/A,Rain,Light Rain,180,2013-06-15 00:32:00
7:52 PM,73.4,59.0,61,29.92,10.0,South,11.5,18.4,N/A,,Clear,170,2013-06-15 00:52:00
8:11 PM,71.6,59.0,64,29.92,10.0,SSE,11.5,17.3,N/A,,Clear,160,2013-06-15 01:11:00
8:32 PM,71.6,59.0,64,29.92,10.0,SSE,10.4,-,N/A,,Mostly Cloudy,150,2013-06-15 01:32:00
8:51 PM,71.6,59.0,64,29.93,10.0,SSE,6.9,-,N/A,,Overcast,150,2013-06-15 01:51:00
9:11 PM,71.6,59.0,64,29.92,10.0,SE,9.2,-,N/A,,Overcast,140,2013-06-15 02:11:00
9:32 PM,71.6,59.0,64,29.90,10.0,SE,10.4,16.1,N/A,,Scattered Clouds,130,2013-06-15 02:32:00
9:51 PM,69.8,59.0,68,29.87,10.0,SE,10.4,-,N/A,,Clear,130,2013-06-15 02:51:00
10:12 PM,69.8,59.0,68,29.89,10.0,SE,9.2,-,N/A,,Scattered Clouds,140,2013-06-15 03:12:00
10:32 PM,69.8,59.0,68,29.91,10.0,SSE,10.4,18.4,N/A,,Mostly Cloudy,150,2013-06-15 03:32:00
10:51 PM,69.8,59.0,68,29.92,10.0,SSE,9.2,16.1,N/A,,Mostly Cloudy,150,2013-06-15 03:51:00
11:12 PM,69.8,59.0,68,29.91,10.0,SSE,15.0,-,N/A,,Mostly Cloudy,150,2013-06-15 04:12:00
11:32 PM,69.8,59.0,68,29.92,10.0,SSE,12.7,19.6,N/A,Thunderstorm,Mostly Cloudy,160,2013-06-15 04:32:00
11:51 PM,69.8,57.2,64,29.94,10.0,South,13.8,18.4,N/A,Thunderstorm,Thunderstorm,170,2013-06-15 04:51:00